Location: Châteauvieux
(47.2310°N, 1.3828°E)
Time: 22:22:24
(UTC+00:00)

USA 290 - Pass Details

Date: 15 May 2026
Orbit: 396 x 415 km, 73.6° (Epoch: 30 October)

Event Time Altitude Azimuth Distance (km) Brightness Sun altitude
Exits shadow 21:18:07 39° 134° (SE) 605 2.5 -15.4°
Maximum altitude 21:18:34 42° 108° (ESE) 571 2.5 -15.4°
Drops below altitude 10° 21:21:34 10° 36° (NE) 1,434 5.2 -15.7°
Sets 21:23:39 0° 29° (NNE) 2,294 6.3 -15.9°
